Kuchera_Ratio
0.0 0.0 0.0 0.0 0.0 0.0 0.0 0.0 0.0 0.0 0.0 0.0 0.0 0.0 0.0 0.0 0.0 0.0 0.0 0.0 0.0 0.0 0.0 0.0 0.0 0.0 0.0 0.0 0.0 0.0 0.0 0.0 0.0 0.0 0.0 0.0 0.0 0.0 0.0 0.0 0.0 0.0 0.0 0.0
0.0 0.0 0.0 0.0 0.0 0.0 0.0 0.0 0.0 0.0 0.0 0.0 0.0 0.0 0.0 0.0 0.0 0.0 0.0 0.0 0.0 0.0 0.0 0.0 0.0 0.0 0.0 0.0 0.0 0.0 0.0 0.0 0.0 0.0 0.0 0.0 0.0 0.0 0.0 0.0 0.0 0.0 0.0 0.0
0.0 0.0 0.0 0.0 0.0 0.0 0.0 0.0 0.0 0.0 0.0 0.0 0.0 0.0 0.0 0.0 0.0 0.0 0.0 0.0 0.0 0.0 0.0 0.0 0.0 0.0 0.0 0.0 0.0 0.0 0.0 0.0 0.0 0.0 0.0 0.0 0.0 0.0 0.0 0.0 0.0 0.0 0.0 0.0
0.0 0.0 9.6 0.0 0.0 0.0 0.0 0.0 0.0 0.0 0.0 0.0 0.0 0.0 0.0 0.0 0.0 0.0 0.0 0.0 0.0 0.0 0.0 0.0 0.0 0.0 0.0 0.0 0.0 0.0 0.0 0.0 0.0 0.0 0.0 0.0 0.0 0.0 0.0 0.0 0.0 0.0 0.0 0.0
0.0 0.9 0.0 0.0 0.0 0.0 0.0 0.0 0.0 0.0 0.0 0.0 0.0 0.0 0.0 0.0 0.0 0.0 0.0 0.0 0.0 0.0 0.0 0.0 0.0 0.0 0.0 0.0 0.0 0.0 0.0 0.0 0.0 0.0 0.0 0.0 0.0 0.0 0.0 0.0 0.0 0.0 0.0 0.0
1.2 1.8 11.2 0.0 0.0 0.0 0.0 0.0 0.0 0.0 0.0 0.0 0.0 0.0 0.0 0.0 0.0 0.0 0.0 0.0 0.0 0.0 0.0 0.0 0.0 0.0 0.0 0.0 0.0 0.0 0.0 0.0 0.0 0.0 0.0 0.0 0.3 0.0 0.0 0.0 0.0 0.0 0.0 0.0
0.4 1.4 0.0 0.0 0.0 0.0 1.5 0.0 0.0 0.0 0.0 0.0 0.0 0.0 0.0 0.0 0.0 0.0 0.0 0.0 0.0 0.0 0.0 0.0 0.0 0.0 0.0 0.0 0.0 0.0 0.0 0.0 0.0 0.0 0.0 0.0 0.0 0.0 0.0 0.2 0.8 1.0 1.3 0.1
1.7 3.1 4.5 0.0 0.0 0.0 0.0 0.0 0.0 0.0 0.0 0.0 0.0 0.0 0.0 0.0 0.0 0.0 0.0 0.0 0.0 0.0 0.0 0.0 0.0 0.0 0.0 0.0 0.0 0.0 0.0 0.0 0.0 0.0 0.0 0.0 0.3 0.5 1.0 1.9 3.4 3.3 3.4 3.4
0.0 0.0 0.0 0.0 0.0 0.0 0.0 0.0 0.0 0.0 0.0 0.0 0.0 0.0 0.0 0.0 0.0 0.0 0.0 0.0 0.0 0.0 0.0 0.0 0.0 0.0 0.0 0.0 0.0 0.0 0.0 0.0 0.2 0.2 0.7 1.2 2.3 2.4 3.9 3.5 4.9 5.0 5.4 5.1
0.0 0.0 0.0 0.0 0.0 0.0 0.0 0.0 0.0 0.0 0.0 0.0 0.0 0.0 0.0 0.0 0.0 0.4 1.0 0.7 0.0 0.0 0.0 0.0 0.0 0.0 0.0 0.0 0.0 0.0 0.6 1.0 1.3 2.1 1.5 1.1 1.9 3.0 5.0 5.4 5.6 5.9 6.3 6.7
0.0 0.0 0.0 0.0 0.0 0.0 0.0 0.0 0.0 0.0 0.0 0.0 0.0 0.0 0.0 0.0 2.0 1.2 0.0 0.0 0.0 0.0 0.0 0.3 0.0 1.7 3.3 2.8 2.1 2.9 3.6 3.9 4.3 4.8 5.3 5.8 5.3 5.7 5.5 3.6 3.9 6.7 7.6 7.8
0.0 0.0 0.0 0.0 0.0 0.0 0.0 0.0 0.0 0.0 0.0 0.0 0.0 0.0 1.2 3.0 1.8 0.1 0.9 0.0 0.5 1.7 3.1 4.9 6.4 7.3 6.9 6.3 6.2 6.9 8.2 8.8 8.9 9.4 9.4 9.9 10.1 9.3 4.9 6.3 5.1 4.7 4.5 6.7
0.0 0.0 0.0 0.0 0.0 0.0 0.0 0.0 0.0 0.0 0.0 0.0 2.3 2.5 3.3 4.9 3.9 2.9 2.3 2.9 4.8 7.8 8.4 8.8 9.4 9.9 8.1 7.9 8.3 8.9 10.7 9.7 10.5 10.7 10.7 11.1 10.9 11.1 12.1 6.9 4.1 4.3 4.1 3.9
0.0 0.0 0.0 0.0 0.0 0.0 0.0 0.0 0.0 1.0 2.1 3.8 4.2 4.8 5.6 6.7 5.5 6.5 8.3 8.7 8.4 8.7 9.3 10.9 10.9 11.7 9.9 9.3 9.5 11.3 12.2 12.2 13.2 13.1 13.0 12.7 12.9 12.4 11.3 11.9 12.5 11.8 5.5 4.9
0.0 0.0 0.0 0.0 0.0 0.2 1.7 1.4 2.9 4.0 5.8 7.0 6.0 6.9 7.1 8.9 9.8 10.8 10.9 10.2 9.3 8.1 10.1 12.3 12.6 13.0 11.3 11.9 12.5 12.9 13.4 14.0 14.1 14.8 14.6 14.7 14.1 14.1 13.9 14.0 13.8 13.2 12.1 9.7
0.0 0.0 0.0 0.0 0.6 2.7 3.9 5.5 5.0 7.5 8.3 8.1 8.5 8.9 9.3 9.6 10.7 11.5 11.3 10.9 11.6 11.6 12.2 13.0 13.9 13.1 12.4 12.9 13.7 14.2 14.5 15.4 15.8 14.9 14.8 13.9 13.8 14.0 13.5 13.9 14.1 13.7 13.3 12.9
0.0 0.0 0.3 2.3 3.9 5.3 5.3 4.1 5.3 9.2 9.7 9.5 10.7 10.3 10.0 10.9 11.5 12.2 12.2 12.4 13.0 13.9 14.1 14.4 15.0 13.5 13.5 13.9 14.7 15.5 15.9 15.7 16.6 15.4 15.4 15.6 15.9 16.3 15.0 15.3 16.4 16.0 15.4 13.4
0.0 0.0 0.0 1.1 3.5 5.9 7.5 8.1 8.7 9.3 10.5 11.1 12.0 12.0 12.1 11.8 12.0 12.6 13.4 14.2 14.9 15.4 14.2 14.5 14.7 14.4 14.4 14.9 15.2 15.6 17.0 17.2 17.6 18.5 17.7 18.8 18.7 17.1 16.9 17.1 17.5 17.7 17.5 16.4
0.0 0.0 0.0 0.7 2.5 5.7 8.3 9.7 9.9 10.7 11.7 12.2 12.1 12.4 12.5 12.6 13.0 13.9 14.8 15.6 16.2 16.5 15.2 15.0 15.2 16.0 15.9 16.3 17.1 18.0 19.7 20.0 20.9 20.1 20.6 21.1 20.3 20.3 19.6 20.5 20.0 19.5 19.0 18.5
0.7 1.5 3.1 5.7 6.3 7.7 11.2 11.3 11.4 12.1 12.3 12.6 12.7 12.7 13.0 13.6 14.4 15.3 16.0 16.5 16.1 15.6 14.4 16.0 16.3 17.0 17.4 17.6 20.8 19.6 21.8 22.6 22.5 23.1 23.3 22.9 23.4 23.0 22.3 23.1 22.4 22.2 21.5 20.4
5.9 6.5 8.5 9.7 11.1 11.3 10.9 11.5 12.0 12.4 13.1 13.7 13.7 13.8 14.3 15.0 16.1 16.8 17.3 17.1 15.7 16.1 15.5 17.5 18.0 18.6 18.3 20.7 20.2 23.0 23.5 23.7 23.9 24.2 24.4 24.7 24.9 24.4 24.9 24.7 24.6 24.3 23.4 22.7
8.1 10.1 11.8 11.7 11.9 12.2 11.7 11.7 12.9 13.1 13.9 14.6 15.0 15.2 15.9 16.6 17.4 17.8 17.5 17.2 15.7 19.1 18.0 18.3 18.7 21.9 21.8 22.7 21.7 24.0 24.5 24.7 24.9 25.1 25.4 25.8 26.1 26.3 26.5 26.3 26.0 25.4 24.6 24.1
10.3 10.3 10.7 12.0 12.4 12.3 12.5 13.6 14.7 15.0 15.3 15.7 16.0 16.6 16.6 16.2 16.7 18.7 19.2 16.4 16.9 19.8 18.7 21.2 21.8 22.4 22.9 23.4 24.0 24.5 25.2 25.4 25.6 25.9 26.5 26.7 27.0 27.3 27.5 27.7 27.4 26.9 25.8 25.3
10.1 9.9 10.7 10.9 12.6 13.1 14.0 13.7 13.2 14.9 16.7 16.9 17.3 17.1 17.3 18.8 19.1 17.4 18.0 19.7 20.1 20.6 21.2 22.0 22.6 23.2 23.6 24.1 24.5 25.1 25.8 26.1 26.4 26.9 27.1 27.4 27.7 27.9 28.1 28.2 28.3 28.4 27.3 26.6
10.7 10.5 10.9 12.3 12.4 13.1 13.0 13.3 14.5 14.8 15.7 15.9 16.5 16.7 17.0 17.6 18.1 20.1 20.1 20.5 21.1 21.6 22.0 22.8 23.4 23.9 24.2 24.8 25.1 25.7 26.3 26.8 27.0 27.4 27.7 27.9 28.0 28.3 28.5 28.7 28.9 29.0 29.1 28.6
12.1 12.3 12.7 12.7 13.5 13.9 14.6 15.1 16.8 17.0 18.2 19.3 19.5 19.0 19.3 19.3 20.1 21.0 21.4 21.8 22.1 22.8 23.2 23.9 24.3 24.7 25.1 25.4 26.0 26.3 26.8 27.4 27.8 28.1 28.2 28.4 28.5 28.8 29.1 29.2 29.3 29.4 29.6 29.6
14.5 14.7 14.8 15.6 15.3 16.0 16.7 17.5 18.6 19.4 19.4 19.3 20.0 20.3 20.3 20.9 21.5 22.0 22.5 22.9 23.3 23.7 24.0 24.7 25.0 25.4 25.8 26.1 26.2 26.9 27.3 27.9 28.6 28.6 28.8 29.0 29.2 29.5 29.5 29.6 29.7 29.9 30.1 30.1